Location: *
(43.4667°N, 11.6833°E)
Time: 03:23:19
(UTC+00:00)

ERS-1 Rocket - Pass Details

Date: 19 July 2019
Orbit: 752 x 759 km, 98.5° (Epoch: 20 August)

Event Time Altitude Azimuth Distance (km) Brightness Sun altitude
Exits shadow 20:57:30 24° 185° (S) 1,533 4.1 -18.0°
Maximum altitude 21:00:29 61° 259° (WSW) 857 3.3 -18.3°
Drops below altitude 10° 21:05:29 10° 340° (NNW) 2,295 6.6 -18.8°
Sets 21:07:49 0° 343° (NNW) 3,224 7.6 -19.0°
